Snowfall_Accumulation
0.7 0.7 0.6 0.6 0.8 0.9 0.6 0.7 1.5 1.6 1.0 0.6 0.5 0.2 0.1 0.1 0.0 0.0 0.0 0.0 0.0 0.0 0.0 0.0 0.0 0.0 0.0 0.0 0.0 0.0 0.0 0.0 0.0 0.0 0.0 0.0 0.0 0.1
0.7 0.8 0.7 0.7 0.7 0.9 0.7 0.7 0.9 1.8 1.9 0.9 0.6 0.5 0.3 0.2 0.2 0.2 0.2 0.1 0.1 0.0 0.1 0.1 0.1 0.1 0.1 0.1 0.1 0.1 0.1 0.1 0.1 0.1 0.1 0.1 0.1 0.1
1.1 0.6 0.7 0.8 0.8 0.8 0.6 0.5 0.5 1.1 2.0 1.2 0.9 0.5 0.4 0.4 0.4 0.1 0.2 0.2 0.1 0.1 0.1 0.1 0.1 0.2 0.2 0.1 0.1 0.1 0.1 0.1 0.1 0.1 0.1 0.1 0.1 0.1
1.0 0.7 0.8 0.6 0.7 1.0 1.1 0.5 0.6 0.8 1.8 2.2 1.5 1.1 0.7 0.6 0.6 0.7 0.6 0.5 0.4 0.2 0.2 0.3 0.3 0.3 0.3 0.3 0.2 0.2 0.2 0.1 0.1 0.1 0.1 0.1 0.1 0.1
0.8 0.6 0.7 0.9 1.0 1.1 1.0 0.5 0.7 1.1 1.7 2.3 1.5 0.9 0.8 0.4 0.4 0.4 0.4 0.5 0.3 0.2 0.2 0.2 0.3 0.3 0.4 0.4 0.4 0.4 0.3 0.2 0.3 0.3 0.3 0.2 0.2 0.2
0.7 0.7 0.6 0.8 1.1 1.6 1.7 1.7 1.9 1.9 2.1 2.6 2.6 2.1 1.4 0.8 0.9 0.9 0.9 0.7 0.5 0.3 0.4 0.2 0.4 0.5 0.4 0.4 0.4 0.4 0.5 0.6 0.6 0.6 0.6 0.5 0.5 0.4
0.9 0.9 0.9 1.0 1.0 1.3 2.0 2.4 2.3 2.9 3.7 4.3 4.1 3.0 1.9 1.4 1.2 1.3 1.3 1.1 0.9 0.3 0.5 0.2 0.3 0.3 0.3 0.3 0.2 0.2 0.3 0.5 0.8 0.8 1.0 0.9 0.7 0.6
1.7 1.5 1.5 1.5 1.1 1.4 1.5 1.8 3.0 4.8 5.6 6.2 5.6 4.1 2.3 1.8 1.7 1.9 2.5 2.9 2.4 1.0 0.8 0.7 0.4 0.3 0.2 0.2 0.2 0.3 0.6 1.0 1.1 1.2 1.2 1.2 1.0 0.9
2.2 2.0 1.7 1.6 1.5 1.4 1.6 1.8 2.4 3.2 4.2 5.0 4.7 3.2 2.3 1.9 3.1 4.3 4.2 4.4 3.2 1.5 1.5 1.4 0.6 0.7 0.3 0.3 0.2 0.3 0.6 0.8 1.0 1.1 1.2 1.2 1.2 1.1
1.9 1.7 1.6 1.3 1.3 1.9 2.9 3.5 2.5 2.1 2.0 1.9 2.4 1.9 1.9 2.0 3.4 5.5 5.4 4.3 2.1 1.4 1.2 2.4 1.2 1.2 0.5 0.3 0.3 0.2 0.4 0.6 0.9 1.1 1.3 1.3 1.3 1.2
1.8 1.5 1.5 1.5 1.8 3.4 4.9 5.2 2.9 1.7 1.1 1.3 1.7 1.7 1.8 2.0 2.5 4.9 6.5 7.9 6.1 2.1 1.6 2.5 1.7 1.7 1.3 0.6 0.3 0.3 0.7 0.6 0.8 1.1 1.3 1.3 1.4 1.3
2.4 1.5 1.6 2.0 2.9 4.8 5.8 5.5 4.1 2.1 2.0 1.9 1.4 1.0 1.0 0.9 1.3 3.7 8.1 13.2 10.7 5.7 1.5 3.0 3.3 4.2 5.5 1.6 1.4 0.9 0.7 0.6 1.0 1.0 1.1 1.1 1.2 1.5
3.3 2.2 1.8 2.4 3.8 4.7 4.6 3.8 3.8 4.3 3.7 2.6 1.9 1.3 1.2 1.2 1.3 1.6 4.0 11.0 14.6 9.8 2.7 6.5 8.7 6.2 9.1 5.8 2.0 1.3 1.4 2.0 2.0 1.6 0.9 1.1 1.3 2.0
4.8 2.7 2.4 3.5 4.2 3.6 3.0 2.9 3.9 4.1 3.8 3.8 3.6 2.9 2.8 2.6 2.6 2.5 2.5 3.8 6.9 8.4 5.4 9.1 14.7 11.3 14.1 11.2 5.5 2.8 2.4 3.0 4.4 4.2 2.8 1.9 1.6 1.4
4.4 4.0 3.9 3.8 3.6 2.7 2.5 3.1 3.2 4.0 5.0 6.2 5.9 4.8 3.5 3.6 3.4 4.0 3.7 4.0 4.8 6.2 6.7 8.1 11.9 13.0 15.1 14.8 10.0 7.2 7.5 4.7 4.6 6.7 6.4 4.5 3.1 2.2
4.6 4.3 3.8 3.1 3.1 3.3 3.3 3.9 4.0 4.4 6.2 7.5 6.7 5.5 5.0 5.5 5.9 7.1 8.7 8.7 9.6 8.2 7.1 6.6 8.0 11.6 13.3 10.3 10.9 10.1 9.7 11.8 8.9 8.6 7.3 6.0 4.3 3.3
6.9 5.8 4.9 4.7 4.5 4.5 4.3 4.0 4.4 5.1 6.2 6.9 7.2 7.6 7.2 7.9 8.9 9.4 11.3 12.3 13.0 10.8 8.8 6.7 6.1 6.9 8.5 9.6 10.5 9.0 9.4 11.5 9.2 8.3 7.0 7.6 5.8 3.6
7.7 8.0 6.6 6.0 6.1 5.5 5.8 5.2 5.4 5.9 6.8 8.5 9.3 9.8 10.3 10.8 11.8 11.8 13.2 14.6 13.9 11.2 9.4 7.6 7.1 7.1 6.6 6.1 6.8 9.3 10.5 11.5 9.7 6.5 6.9 9.7 8.0 4.7
7.3 8.1 7.5 7.2 7.1 6.8 7.2 7.1 7.2 6.9 8.3 10.5 11.5 12.2 12.7 13.0 14.0 14.7 14.7 14.8 13.4 10.6 9.0 7.8 9.4 14.2 16.3 11.5 6.4 7.5 12.5 13.1 9.8 8.3 7.2 8.1 8.7 5.3
6.4 7.2 7.3 7.5 7.6 7.9 8.2 8.9 8.9 9.0 10.0 11.5 12.5 13.2 14.7 16.2 16.5 15.9 15.0 14.7 13.9 11.4 8.8 7.5 8.5 13.4 20.5 18.3 14.1 10.1 7.6 12.3 14.1 12.6 7.9 5.1 4.5 3.5
7.1 6.7 6.9 7.4 8.4 9.1 9.6 10.2 11.0 12.1 12.7 14.6 15.0 15.3 16.1 18.4 18.9 16.1 14.9 13.5 12.9 12.1 10.6 7.8 6.9 8.6 13.1 17.3 17.5 13.4 11.8 7.6 8.3 13.3 13.8 13.6 11.8 9.4
8.0 7.9 7.7 7.9 8.9 9.7 10.7 11.6 12.9 13.9 14.3 15.8 16.3 15.7 16.3 17.7 17.7 15.2 13.5 13.3 12.3 11.5 10.4 8.7 7.5 8.4 12.7 17.6 16.4 12.0 11.5 10.1 7.2 5.7 7.0 11.2 19.8 21.3
10.2 10.0 9.6 9.1 10.0 10.5 11.8 12.7 14.0 14.9 15.3 16.7 17.3 16.5 16.0 15.3 13.5 12.8 12.5 12.7 13.3 12.1 11.9 11.4 10.1 10.1 11.3 12.7 13.6 12.3 10.5 9.7 9.3 9.6 10.4 5.6 5.5 6.0